STARLINK-4664, 53777

Orbit data source: Space-Track

STARLINK-4664, 53777 is a payload satellite owned by SpaceX/Seattle (US) in LEO that was launched on Sun, 11 Sep 2022 UTC via an FALCON 9 launch vehicle from the Air Force Eastern Test Range (AFETR). Payload-class satellites include a variety of spacecraft equipped with specific instruments for various scientific and technological missions. These include communications satellites like Starlink; space stations such as the ISS; scientific satellites like the Hubble; Earth observation satellites from companies like Planet Labs, Umbra, and HawkEye 360; GPS; miniature CubeSats for education and research; and military/defense satellites.

Loading next visibility...
Identifier
53777, 2022-111E
Orbit
LEO
Country
Flag of USUS
Related business
Manufacturer
SpaceX/Seattle
Mission
Operational Commercial Communications
Bus & Motor
STARLINK, Unknown motor
Mass
305 kg wet, ~290 kg dry
Launch date (UTC)
2022-09-11 (4 years ago)
Launch vehicle
FALCON 9
Launch site
Air Force Eastern Test Range (AFETR)
Object type
Payload
Rocket body
Debris
Shape & HBR
Box + 1 Pan, 10.1 m
Radar Cross Section
13.562 m², Large (>1 m²)

Expand to show TLE details & history
Last TLE update: 11 hours ago

TLE from 11 hours ago
0 STARLINK-4664
1 53777U 22111E   26263.58335648  .00069856  00000-0  23275-2 0  9992
2 53777  53.1595 115.9454 0001517  74.3449   4.1582 15.30492479  5754
Epoch: 2026-09-20T14:00Z
TLE epoch observation values (Epoch: 2026-09-20T14:00:01.999Z)
Latitude
51.80272°
Longitude
-22.29536°
Altitude
479.537 km
Speed
7.633 km/s
True Right ascension
12h 28m 45s
True Declination
51° 37' 43"
Sunlit
Object was in daylight at epoch
Visualization orbit readout
Latitude
Unknown
Longitude
Unknown
Altitude
Unknown
Speed
Unknown
Apparent Right ascension
Unknown
Apparent Declination
Unknown
Sunlit
N/A
Visualization observer readout
Local Sidereal Time
18:17:30
Azimuth
Unknown
Elevation
Unknown
Doppler factor
Unknown
Orbital elements
Apogee altitude
475.638 km
Perigee altitude
473.559 km
Semi-major axis
6,852.735 km
Eccentricity
0.00015
Inclination
53.1595°
RAAN
115.9454°
Arg. of periapsis
74.3449°
True anomaly
4.15946°
Mean anomaly
4.1582°
Eccentric anomaly
4.15883°
Mean motion
3.82602 °/min
Orbital period
94.09 mins
BSTAR
0.0023275
Loading maneuver chart data...
Computing Atmospheric mass density...
Loading historical data...
Loading historical data...
Loading historical data...
Loading historical data...
Loading historical data...
Loading historical data...
Loading historical data...

Documentation

Showing up to 5 results
|